AUA4PM EHAM-LFPG

Flight info

Callsign AUA4PM
Flight time 0h 55m
Altitude 29000
Route EHAM/36C WOODY3W WOODY N872 DENOX DCT SISGA DCT DELOM DCT MOPIL
Aircraft A20N/M-SDE2E3FGHIJ1RWXY/LB1

Departure

Time 2026-05-08 19:46
Airport Amsterdam Airport Schiphol (EHAM)

Arrival

Time 2026-05-08 20:41
Airport Charles de Gaulle International Airport (LFPG)
Time Latitude Longitude Altitude Speed Heading
2026-05-08 19:08 52.31155 4.75355 0 ft 0 kts 267°
2026-05-08 19:34 52.31155 4.75368 0 ft 2 kts 265°
2026-05-08 19:34 52.31156 4.75393 0 ft 2 kts 266°
2026-05-08 19:35 52.31158 4.75422 0 ft 2 kts 266°
2026-05-08 19:35 52.31159 4.75449 1 ft 1 kts 266°
2026-05-08 19:35 52.31160 4.75461 1 ft 0 kts 282°
2026-05-08 19:35 52.31157 4.75468 1 ft 0 kts 345°
2026-05-08 19:36 52.31152 4.75468 1 ft 1 kts
2026-05-08 19:36 52.31148 4.75468 1 ft 0 kts 360°
2026-05-08 19:38 52.31156 4.75467 1 ft 3 kts 357°
2026-05-08 19:38 52.31199 4.75463 1 ft 9 kts 356°
2026-05-08 19:39 52.31266 4.75455 1 ft 9 kts 356°
2026-05-08 19:39 52.31344 4.75447 1 ft 12 kts 357°
2026-05-08 19:39 52.31410 4.75441 1 ft 7 kts 355°
2026-05-08 19:39 52.31425 4.75378 0 ft 9 kts 268°
2026-05-08 19:40 52.31421 4.75230 0 ft 15 kts 268°
2026-05-08 19:40 52.31416 4.75030 -2 ft 15 kts 264°
2026-05-08 19:40 52.31409 4.74846 -3 ft 17 kts 268°
2026-05-08 19:40 52.31402 4.74633 -5 ft 17 kts 267°
2026-05-08 19:41 52.31396 4.74434 -5 ft 14 kts 266°
2026-05-08 19:41 52.31373 4.74287 -4 ft 9 kts 259°
2026-05-08 19:41 52.31374 4.74158 -4 ft 13 kts 227°
2026-05-08 19:41 52.31270 4.74124 -3 ft 17 kts 184°
2026-05-08 19:42 52.31134 4.74113 -4 ft 21 kts 183°
2026-05-08 19:42 52.31001 4.74099 -5 ft 18 kts 183°
2026-05-08 19:42 52.30864 4.74087 -8 ft 20 kts 184°
2026-05-08 19:42 52.30741 4.74075 -10 ft 16 kts 183°
2026-05-08 19:43 52.30624 4.74066 -10 ft 15 kts 183°
2026-05-08 19:43 52.30523 4.74054 -10 ft 14 kts 183°
2026-05-08 19:43 52.30426 4.74045 -11 ft 14 kts 184°
2026-05-08 19:43 52.30331 4.74008 -10 ft 13 kts 201°
2026-05-08 19:44 52.30245 4.73941 -12 ft 8 kts 212°
2026-05-08 19:44 52.30222 4.73915 -12 ft 0 kts 217°
2026-05-08 19:44 52.30221 4.73915 -12 ft 1 kts 217°
2026-05-08 19:45 52.30195 4.73872 -11 ft 9 kts 238°
2026-05-08 19:45 52.30210 4.73749 -8 ft 14 kts 331°
2026-05-08 19:45 52.30369 4.73748 -8 ft 48 kts
2026-05-08 19:45 52.30962 4.73805 -7 ft 119 kts
2026-05-08 19:46 52.31988 4.73902 92 ft 165 kts
2026-05-08 19:46 52.33027 4.73998 1022 ft 142 kts
2026-05-08 19:46 52.35001 4.74959 2088 ft 161 kts 26°
2026-05-08 19:47 52.36084 4.75719 2578 ft 177 kts 28°
2026-05-08 19:47 52.37067 4.77046 3059 ft 192 kts 57°
2026-05-08 19:47 52.37479 4.79224 3541 ft 210 kts 89°
2026-05-08 19:47 52.37185 4.81709 4019 ft 232 kts 111°
2026-05-08 19:48 52.36239 4.83865 4913 ft 235 kts 141°
2026-05-08 19:48 52.34730 4.85035 5625 ft 247 kts 171°
2026-05-08 19:48 52.32937 4.85112 6053 ft 267 kts 182°
2026-05-08 19:48 52.31018 4.84991 6296 ft 279 kts 182°
2026-05-08 19:49 52.29066 4.84887 7154 ft 283 kts 182°
2026-05-08 19:49 52.27134 4.84814 8150 ft 281 kts 181°
2026-05-08 19:49 52.25172 4.84760 9004 ft 284 kts 181°
2026-05-08 19:49 52.23180 4.84715 9816 ft 288 kts 181°
2026-05-08 19:50 52.21145 4.84671 10612 ft 293 kts 181°
2026-05-08 19:50 52.19055 4.84626 11088 ft 309 kts 181°
2026-05-08 19:50 52.16792 4.84577 11487 ft 327 kts 181°
2026-05-08 19:50 52.14433 4.84528 11917 ft 342 kts 181°
2026-05-08 19:51 52.11943 4.84477 12242 ft 360 kts 181°
2026-05-08 19:51 52.09381 4.84425 12670 ft 373 kts 181°
2026-05-08 19:51 52.06739 4.84371 13365 ft 377 kts 181°
2026-05-08 19:51 52.04102 4.84214 14064 ft 380 kts 186°
2026-05-08 19:52 52.01457 4.83410 14772 ft 383 kts 195°
2026-05-08 19:52 51.98902 4.81885 15425 ft 387 kts 204°
2026-05-08 19:52 51.96434 4.79967 16214 ft 386 kts 206°
2026-05-08 19:52 51.94029 4.78033 17203 ft 380 kts 206°
2026-05-08 19:53 51.91597 4.76092 17914 ft 382 kts 206°
2026-05-08 19:53 51.89188 4.74195 18488 ft 385 kts 206°
2026-05-08 19:53 51.86752 4.72292 19058 ft 389 kts 206°
2026-05-08 19:53 51.84308 4.70387 19613 ft 392 kts 206°
2026-05-08 19:54 51.81829 4.68457 20138 ft 396 kts 206°
2026-05-08 19:54 51.79331 4.66513 20661 ft 400 kts 206°
2026-05-08 19:54 51.76844 4.64581 21169 ft 404 kts 206°
2026-05-08 19:54 51.74263 4.62575 21680 ft 408 kts 206°
2026-05-08 19:55 51.71699 4.60587 22171 ft 412 kts 207°
2026-05-08 19:55 51.69113 4.58583 22656 ft 416 kts 207°
2026-05-08 19:55 51.66500 4.56560 23138 ft 419 kts 207°
2026-05-08 19:55 51.63856 4.54516 23600 ft 423 kts 207°
2026-05-08 19:56 51.61196 4.52463 24068 ft 427 kts 207°
2026-05-08 19:56 51.58533 4.50411 24513 ft 430 kts 207°
2026-05-08 19:56 51.55827 4.48326 24988 ft 433 kts 207°
2026-05-08 19:56 51.53105 4.46236 25402 ft 437 kts 207°
2026-05-08 19:57 51.50347 4.44118 25798 ft 441 kts 207°
2026-05-08 19:57 51.47554 4.41977 26091 ft 446 kts 207°
2026-05-08 19:57 51.44747 4.39828 26101 ft 448 kts 207°
2026-05-08 19:57 51.41957 4.37693 26103 ft 448 kts 207°
2026-05-08 19:58 51.39143 4.35545 26101 ft 448 kts 207°
2026-05-08 19:58 51.36321 4.33399 26101 ft 449 kts 206°
2026-05-08 19:58 51.33508 4.31262 26103 ft 449 kts 206°
2026-05-08 19:58 51.30651 4.29095 26106 ft 449 kts 206°
2026-05-08 19:59 51.27838 4.26958 26101 ft 449 kts 206°
2026-05-08 19:59 51.25024 4.24820 26106 ft 449 kts 206°
2026-05-08 19:59 51.22203 4.22683 26106 ft 450 kts 206°
2026-05-08 19:59 51.19345 4.20521 26101 ft 450 kts 206°
2026-05-08 20:00 51.16455 4.18478 26106 ft 451 kts 203°
2026-05-08 20:00 51.13518 4.16717 26101 ft 452 kts 200°
2026-05-08 20:00 51.10557 4.15098 26101 ft 452 kts 200°
2026-05-08 20:00 51.07545 4.13453 26105 ft 452 kts 200°
2026-05-08 20:01 51.04488 4.11781 26099 ft 452 kts 200°
2026-05-08 20:01 51.01494 4.10144 26101 ft 452 kts 200°
2026-05-08 20:01 50.98518 4.08518 26100 ft 452 kts 200°
2026-05-08 20:01 50.95568 4.06908 26099 ft 452 kts 200°
2026-05-08 20:02 50.92568 4.05273 26096 ft 452 kts 200°
2026-05-08 20:02 50.89577 4.03909 26091 ft 452 kts 193°
2026-05-08 20:02 50.86432 4.03192 26093 ft 453 kts 185°
2026-05-08 20:02 50.83281 4.03171 26096 ft 454 kts 177°
2026-05-08 20:03 50.80134 4.03504 26090 ft 454 kts 176°
2026-05-08 20:03 50.77028 4.03891 26090 ft 455 kts 175°
2026-05-08 20:03 50.73860 4.04283 26090 ft 454 kts 175°
2026-05-08 20:03 50.70707 4.04656 26092 ft 454 kts 176°
2026-05-08 20:04 50.67548 4.05013 26086 ft 454 kts 176°
2026-05-08 20:04 50.64404 4.05359 26089 ft 454 kts 176°
2026-05-08 20:04 50.61297 4.05699 26090 ft 454 kts 176°
2026-05-08 20:04 50.58147 4.06044 26084 ft 455 kts 176°
2026-05-08 20:05 50.54998 4.06390 26080 ft 455 kts 176°
2026-05-08 20:05 50.51816 4.06738 26082 ft 456 kts 176°
2026-05-08 20:05 50.48703 4.07076 26081 ft 456 kts 176°
2026-05-08 20:05 50.45517 4.07421 26076 ft 455 kts 176°
2026-05-08 20:06 50.42350 4.07765 26065 ft 455 kts 176°
2026-05-08 20:06 50.39169 4.08109 26082 ft 455 kts 176°
2026-05-08 20:06 50.36033 4.08448 26076 ft 455 kts 176°
2026-05-08 20:06 50.32829 4.08795 26072 ft 455 kts 176°
2026-05-08 20:07 50.29684 4.09136 26075 ft 455 kts 176°
2026-05-08 20:07 50.26489 4.09482 26077 ft 456 kts 176°
2026-05-08 20:07 50.23349 4.09823 26075 ft 456 kts 176°
2026-05-08 20:07 50.20138 4.10172 26069 ft 456 kts 176°
2026-05-08 20:08 50.16971 4.10505 26064 ft 456 kts 177°
2026-05-08 20:08 50.13784 4.10631 26059 ft 456 kts 181°
2026-05-08 20:08 50.10555 4.10468 26066 ft 456 kts 183°
2026-05-08 20:08 50.07363 4.10226 26053 ft 455 kts 183°
2026-05-08 20:09 50.04176 4.09982 25830 ft 449 kts 183°
2026-05-08 20:09 50.01077 4.09747 25308 ft 445 kts 183°
2026-05-08 20:09 49.97943 4.09511 25063 ft 444 kts 183°
2026-05-08 20:09 49.94848 4.09281 25044 ft 445 kts 183°
2026-05-08 20:10 49.91754 4.09053 24945 ft 441 kts 183°
2026-05-08 20:10 49.88736 4.08830 24442 ft 438 kts 183°
2026-05-08 20:10 49.85678 4.08603 23810 ft 435 kts 183°
2026-05-08 20:10 49.82667 4.08380 23241 ft 431 kts 183°
2026-05-08 20:11 49.79636 4.08158 22695 ft 426 kts 183°
2026-05-08 20:11 49.76590 4.07979 22072 ft 424 kts 179°
2026-05-08 20:11 49.73551 4.08333 21248 ft 426 kts 173°
2026-05-08 20:11 49.70502 4.08917 20611 ft 423 kts 172°
2026-05-08 20:12 49.67487 4.09532 20039 ft 416 kts 172°
2026-05-08 20:12 49.64590 4.10122 19390 ft 412 kts 172°
2026-05-08 20:12 49.61752 4.10700 18743 ft 407 kts 172°
2026-05-08 20:12 49.58947 4.11278 18131 ft 401 kts 173°
2026-05-08 20:13 49.56137 4.11204 17465 ft 394 kts 193°
2026-05-08 20:13 49.53625 4.09454 16822 ft 388 kts 216°
2026-05-08 20:13 49.51666 4.06433 16157 ft 383 kts 234°
2026-05-08 20:13 49.50430 4.02731 15494 ft 379 kts 252°
2026-05-08 20:14 49.49820 3.98718 15131 ft 377 kts 258°
2026-05-08 20:14 49.49283 3.94692 15059 ft 377 kts 258°
2026-05-08 20:14 49.48740 3.90736 15056 ft 377 kts 257°
2026-05-08 20:14 49.48154 3.86615 15055 ft 376 kts 257°
2026-05-08 20:15 49.47581 3.82672 15055 ft 369 kts 257°
2026-05-08 20:15 49.47019 3.78849 15053 ft 368 kts 257°
2026-05-08 20:15 49.46439 3.74937 15053 ft 367 kts 257°
2026-05-08 20:15 49.45871 3.71129 15052 ft 366 kts 256°
2026-05-08 20:16 49.45294 3.67274 15058 ft 366 kts 256°
2026-05-08 20:16 49.44713 3.63410 15053 ft 366 kts 256°
2026-05-08 20:16 49.44139 3.59600 15056 ft 366 kts 257°
2026-05-08 20:16 49.43557 3.55756 15054 ft 367 kts 257°
2026-05-08 20:17 49.42963 3.51832 15056 ft 366 kts 257°
2026-05-08 20:17 49.42316 3.47879 15053 ft 366 kts 253°
2026-05-08 20:17 49.41495 3.44124 15051 ft 366 kts 249°
2026-05-08 20:17 49.40493 3.40537 15047 ft 366 kts 245°
2026-05-08 20:18 49.39392 3.37042 15051 ft 365 kts 244°
2026-05-08 20:18 49.38254 3.33487 15051 ft 365 kts 243°
2026-05-08 20:18 49.37116 3.29935 15049 ft 365 kts 243°
2026-05-08 20:18 49.35968 3.26351 15049 ft 365 kts 243°
2026-05-08 20:19 49.34839 3.22825 15054 ft 366 kts 243°
2026-05-08 20:19 49.33718 3.19329 15055 ft 366 kts 243°
2026-05-08 20:19 49.32565 3.15731 15054 ft 366 kts 243°
2026-05-08 20:19 49.31428 3.12191 15049 ft 366 kts 243°
2026-05-08 20:20 49.30285 3.08637 15050 ft 366 kts 243°
2026-05-08 20:20 49.29119 3.05011 15052 ft 365 kts 243°
2026-05-08 20:20 49.27967 3.01435 15053 ft 365 kts 243°
2026-05-08 20:20 49.26788 2.97779 15048 ft 365 kts 243°
2026-05-08 20:21 49.25625 2.94182 15046 ft 364 kts 243°
2026-05-08 20:21 49.24485 2.90659 15044 ft 365 kts 243°
2026-05-08 20:21 49.23328 2.87088 14937 ft 356 kts 243°
2026-05-08 20:21 49.22234 2.83719 14721 ft 344 kts 243°
2026-05-08 20:22 49.21171 2.80447 14506 ft 333 kts 244°
2026-05-08 20:22 49.20123 2.77225 14303 ft 322 kts 244°
2026-05-08 20:22 49.19132 2.74180 14102 ft 312 kts 244°
2026-05-08 20:22 49.18486 2.72199 13986 ft 306 kts 244°
2026-05-08 20:23 49.17230 2.68349 13603 ft 298 kts 244°
2026-05-08 20:23 49.16309 2.65521 13285 ft 293 kts 245°
2026-05-08 20:23 49.15728 2.62487 12950 ft 289 kts 267°
2026-05-08 20:23 49.15809 2.59441 12667 ft 285 kts 275°
2026-05-08 20:24 49.16035 2.56397 12415 ft 278 kts 277°
2026-05-08 20:24 49.16275 2.53477 12293 ft 268 kts 277°
2026-05-08 20:24 49.16513 2.50606 12093 ft 260 kts 277°
2026-05-08 20:24 49.16738 2.47845 11800 ft 257 kts 277°
2026-05-08 20:25 49.16959 2.45055 11494 ft 256 kts 277°
2026-05-08 20:25 49.17170 2.42298 11138 ft 255 kts 277°
2026-05-08 20:25 49.17378 2.39556 10778 ft 255 kts 277°
2026-05-08 20:25 49.17587 2.36753 10423 ft 255 kts 277°
2026-05-08 20:26 49.17790 2.34008 10091 ft 255 kts 276°
2026-05-08 20:26 49.17987 2.31310 9780 ft 254 kts 277°
2026-05-08 20:26 49.18185 2.28569 9455 ft 254 kts 276°
2026-05-08 20:26 49.18335 2.25826 9132 ft 253 kts 273°
2026-05-08 20:27 49.18400 2.23107 8805 ft 252 kts 272°
2026-05-08 20:27 49.18447 2.20370 8479 ft 251 kts 271°
2026-05-08 20:27 49.18492 2.17659 8174 ft 250 kts 271°
2026-05-08 20:27 49.18541 2.14955 7869 ft 248 kts 271°
2026-05-08 20:28 49.18592 2.12269 7571 ft 247 kts 271°
2026-05-08 20:28 49.18644 2.09564 7237 ft 246 kts 271°
2026-05-08 20:28 49.18695 2.06857 6905 ft 246 kts 272°
2026-05-08 20:28 49.18623 2.04205 6560 ft 246 kts 255°
2026-05-08 20:29 49.17853 2.01792 6224 ft 244 kts 236°
2026-05-08 20:29 49.16854 1.99661 5912 ft 243 kts 232°
2026-05-08 20:29 49.15815 1.97575 5597 ft 242 kts 232°
2026-05-08 20:29 49.14774 1.95502 5281 ft 242 kts 232°
2026-05-08 20:30 49.13724 1.93411 4962 ft 241 kts 232°
2026-05-08 20:30 49.12668 1.91305 4646 ft 241 kts 232°
2026-05-08 20:30 49.11626 1.89216 4329 ft 240 kts 232°
2026-05-08 20:30 49.10585 1.87122 4040 ft 238 kts 232°
2026-05-08 20:31 49.09545 1.85090 3986 ft 239 kts 224°
2026-05-08 20:31 49.08131 1.83759 3979 ft 235 kts 193°
2026-05-08 20:31 49.06493 1.83331 3984 ft 234 kts 184°
2026-05-08 20:31 49.04844 1.83111 3981 ft 234 kts 182°
2026-05-08 20:32 49.03179 1.82933 3981 ft 235 kts 181°
2026-05-08 20:32 49.01560 1.83210 3966 ft 231 kts 154°
2026-05-08 20:32 49.00320 1.84691 3974 ft 226 kts 123°
2026-05-08 20:32 48.99770 1.86885 3975 ft 222 kts 92°
2026-05-08 20:33 48.99768 1.89273 3983 ft 222 kts 90°
2026-05-08 20:33 48.99739 1.91626 3979 ft 222 kts 90°
2026-05-08 20:33 48.99737 1.93969 3979 ft 221 kts 89°
2026-05-08 20:33 48.99767 1.96338 3975 ft 221 kts 88°
2026-05-08 20:34 48.99820 1.98702 3967 ft 220 kts 87°
2026-05-08 20:34 48.99892 2.01050 3966 ft 221 kts 86°
2026-05-08 20:34 49.00075 2.05724 3966 ft 222 kts 85°
2026-05-08 20:35 49.00184 2.08136 3969 ft 239 kts 85°
2026-05-08 20:35 49.00310 2.10752 3970 ft 252 kts 85°
2026-05-08 20:35 49.00440 2.13381 3961 ft 242 kts 85°
2026-05-08 20:35 49.00564 2.15831 3954 ft 227 kts 85°
2026-05-08 20:36 49.00684 2.18189 3956 ft 211 kts 85°
2026-05-08 20:36 49.00797 2.20372 3946 ft 196 kts 85°
2026-05-08 20:36 49.00901 2.22382 4061 ft 183 kts 85°
2026-05-08 20:36 49.01001 2.24309 3939 ft 181 kts 85°
2026-05-08 20:37 49.01099 2.26206 3719 ft 180 kts 85°
2026-05-08 20:37 49.01198 2.28114 3473 ft 179 kts 85°
2026-05-08 20:37 49.01294 2.29973 3242 ft 178 kts 85°
2026-05-08 20:37 49.01391 2.31853 3003 ft 177 kts 84°
2026-05-08 20:38 49.01488 2.33726 2768 ft 176 kts 84°
2026-05-08 20:38 49.01584 2.35576 2535 ft 175 kts 84°
2026-05-08 20:38 49.01679 2.37425 2301 ft 175 kts 84°
2026-05-08 20:38 49.01772 2.39216 2089 ft 165 kts 83°
2026-05-08 20:39 49.01860 2.40926 1859 ft 154 kts 83°
2026-05-08 20:39 49.01940 2.42478 1649 ft 143 kts 82°
2026-05-08 20:39 49.02020 2.43969 1475 ft 139 kts 83°
2026-05-08 20:39 49.02096 2.45409 1294 ft 135 kts 83°
2026-05-08 20:40 49.02168 2.46814 1141 ft 134 kts 84°
2026-05-08 20:40 49.02235 2.48272 939 ft 134 kts 83°
2026-05-08 20:40 49.02316 2.49684 775 ft 133 kts 83°
2026-05-08 20:40 49.02395 2.51088 604 ft 132 kts 84°
2026-05-08 20:41 49.02468 2.52493 452 ft 133 kts 83°
2026-05-08 20:41 49.02548 2.53861 379 ft 114 kts 87°
2026-05-08 20:41 49.02599 2.54804 377 ft 61 kts 84°
2026-05-08 20:41 49.02583 2.55217 379 ft 25 kts 105°
2026-05-08 20:42 49.02517 2.55451 379 ft 23 kts 114°
2026-05-08 20:42 49.02474 2.55577 380 ft 0 kts 136°
2026-05-08 20:43 49.02447 2.55604 380 ft 0 kts 162°
2026-05-08 20:44 49.02444 2.55605 380 ft 1 kts 164°
2026-05-08 20:45 49.02426 2.55610 380 ft 3 kts 173°
2026-05-08 20:45 49.02404 2.55613 379 ft 5 kts 175°
2026-05-08 20:45 49.02337 2.55622 379 ft 8 kts 174°
2026-05-08 20:45 49.02271 2.55630 378 ft 10 kts 175°
2026-05-08 20:46 49.02187 2.55640 376 ft 13 kts 176°
2026-05-08 20:46 49.02105 2.55640 375 ft 12 kts 199°
2026-05-08 20:46 49.02063 2.55534 374 ft 12 kts 264°
2026-05-08 20:46 49.02057 2.55435 374 ft 9 kts 265°
2026-05-08 20:47 49.02052 2.55324 373 ft 11 kts 265°
2026-05-08 20:47 49.02046 2.55201 373 ft 12 kts 265°
2026-05-08 20:47 49.02038 2.55064 373 ft 13 kts 265°
2026-05-08 20:47 49.02031 2.54915 371 ft 15 kts 266°
2026-05-08 20:48 49.02022 2.54740 370 ft 17 kts 264°
2026-05-08 20:48 49.02011 2.54560 370 ft 17 kts 265°
2026-05-08 20:48 49.02003 2.54396 369 ft 11 kts 265°
2026-05-08 20:48 49.01997 2.54270 369 ft 12 kts 265°
2026-05-08 20:49 49.01975 2.54163 369 ft 11 kts 229°
2026-05-08 20:49 49.01913 2.54131 368 ft 12 kts 181°
2026-05-08 20:49 49.01841 2.54143 366 ft 14 kts 149°
2026-05-08 20:49 49.01808 2.54251 366 ft 14 kts 102°
2026-05-08 20:50 49.01795 2.54348 366 ft 10 kts 101°
2026-05-08 20:50 49.01769 2.54443 365 ft 12 kts 119°
2026-05-08 20:50 49.01731 2.54534 365 ft 10 kts 124°
2026-05-08 20:50 49.01693 2.54599 365 ft 10 kts 135°
2026-05-08 20:51 49.01646 2.54653 365 ft 11 kts 146°
2026-05-08 20:51 49.01587 2.54702 364 ft 12 kts 157°
2026-05-08 20:51 49.01512 2.54738 363 ft 14 kts 167°
2026-05-08 20:51 49.01432 2.54751 361 ft 13 kts 180°
2026-05-08 20:52 49.01354 2.54736 360 ft 15 kts 194°
2026-05-08 20:52 49.01297 2.54708 359 ft 10 kts 204°
2026-05-08 20:52 49.01251 2.54669 358 ft 12 kts 216°
2026-05-08 20:52 49.01212 2.54622 358 ft 8 kts 227°
2026-05-08 20:53 49.01210 2.54566 358 ft 7 kts 318°
2026-05-08 20:53 49.01247 2.54556 359 ft 5 kts
2026-05-08 20:53 49.01277 2.54559 360 ft 4 kts 356°
2026-05-08 20:53 49.01299 2.54555 361 ft 3 kts 351°
2026-05-08 20:54 49.01306 2.54554 361 ft 0 kts 350°